Regional Weather Roundup
Issued by NWS

Home | Current Version | Previous Version | Text Only | Print | Product List | Glossary On
Versions: 1 2 3 4 5 6 7 8 9 10 11 12 13 14 15 16 17 18 19 20 21 22 23 24 25 26 27 28 29 30 31 32 33 34 35 36 37 38 39 40 41 42 43 44 45 46 47 48 49 50
000
ASHW40 PHFO 240043
RWRHI

WEATHER ROUNDUP FOR HAWAII
NATIONAL WEATHER SERVICE HONOLULU HI
200 PM HST WED APR 23 2014

THIS IS AN AUTOMATED REPORT THAT HAS NOT BEEN QUALITY CONTROLLED.

NOTE..."FAIR" INDICATES FEW OR NO CLOUDS BELOW 12,000 FEET WITH NO
SIGNIFICANT WEATHER AND/OR OBSTRUCTIONS TO VISIBILITY.

* - THESE SITES REPORT LIMITED FIELDS

HIZ001>004-240100-
KAUAI-NIIHAU-

CITY           SKY/WX    TMP DP  RH WIND       PRES   REMARKS
LIHUE APT        N/A     78  69  73 MISG      30.11F
PORT ALLEN*      N/A     77 N/A N/A NE18G31     N/A
POIPU*           N/A     81 N/A N/A NE9G18      N/A
PRINCEVILLE*   NOT AVBL
KOKOLE POINT*  NOT AVBL
MOLOAA DAIRY*  NOT AVBL
WAIMEA HTS*      N/A     84  61  45 E16G26      N/A
PUU OPAE*        N/A     72  64  78 CALM        N/A
PUU LUA*       NOT AVBL
MAKAHA RIDGE*    N/A     75  68  78 CALM        N/A
$$

HIZ005>011-240100-
OAHU-

CITY           SKY/WX    TMP DP  RH WIND       PRES   REMARKS
HONOLULU       MOSUNNY   84  61  45 E21G32    30.04F
KALAELOA       MOSUNNY   84  61  45 NE12G22   30.05F
KANEOHE MCB    MOSUNNY   82  65  55 NE12G18   30.07F
WHEELER FIELD  FAIR      80  63  57 NE14G23   30.06F
BELLOWS*       NOT AVBL
KAHUKU*          N/A    N/A N/A N/A NE9G18      N/A
WHEELER*       NOT AVBL
WAIANAE HARBOR NOT AVBL
DILLINGHAM*      N/A     61  50  67 N7G20       N/A
KAHUKU TRN*      N/A     70  64  83 E13G26      N/A
KAWAILOA*      NOT AVBL
KII*             N/A     79  70  73 NE15G23     N/A
MAKUA RANGE*     N/A     84  66  54 SW12G32     N/A
OAHU FOREST NW   N/A     66  63  88 VRB22G37    N/A
SCHOFIELD BRK*   N/A     79  63  57 MISG        N/A
SCHOFIELD S*     N/A     75 N/A N/A NE3G12      N/A
WAIANAE VLY*     N/A     82  59  44 SE8G26      N/A
KUAOKALA*        N/A     73  66  78 N15G31      N/A
HONOULIUULI*   NOT AVBL
MOKUOLOE IS*     N/A    N/A N/A N/A MISG        N/A
PALEHUA*         N/A    N/A N/A N/A CALM        N/A
WAIAWA PHB*    NOT AVBL
$$

HIZ012>013-240100-
MOLOKAI-

CITY           SKY/WX    TMP DP  RH WIND       PRES   REMARKS
MOLOKAI AIRPT  SUNNY     78  68  71 NE22G32   30.05F
KALAUPAPA      NOT AVBL
MAKAPULAPAI*     N/A     81  68  65 E21G30      N/A
MOLOKAI 1*       N/A     75  61  60 W5G18       N/A
PUU ALII*        N/A     65  60  83 E3G14       N/A
$$

HIZ016-240100-
KAHOOLAWE-

CITY           SKY/WX    TMP DP  RH WIND       PRES   REMARKS
KAHOOLAWE*       N/A     75 N/A N/A E23G31      N/A
HAKIOAWA*        N/A     77  64  65 MISG      30.14F
HONOKANAIA*      N/A     87  57  35 NE21G35   30.01F
KANELOA*       NOT AVBL
KEALIALALO*      N/A    N/A N/A N/A E22G40    30.33F
LUA MAKIKA*    NOT AVBL
$$

HIZ014>015-240100-
LANAI-

CITY           SKY/WX    TMP DP  RH WIND       PRES   REMARKS
LANAI CITY     FAIR      80  64  58 NE25G31   30.07F
LANAI 1*         N/A     66  61  82 NE23G39     N/A
$$

HIZ017>028-240100-
MAUI-

CITY           SKY/WX    TMP DP  RH WIND       PRES   REMARKS
KAHULUI        MOSUNNY   82  66  58 NE24G35   30.03F
KAPALUA-W MAUI MOSUNNY   79  66  65 NE17G29   30.05F
HANA AIRPORT   NOT AVBL
HANA*            N/A     75 N/A N/A NE12G23     N/A
HALEAKALA SUMM   N/A     48  41  76 E20         N/A
MAALAEA BAY*   NOT AVBL
HALEAKALA*     NOT AVBL
KAUPO GAP*       N/A     82  70  65 S7G26       N/A
KULA 1*          N/A     62  55  76 W6G12       N/A
$$

HIZ023>026-240100-
BIG ISLAND OF HAWAII COAST AND LOWER SLOPES-

CITY           SKY/WX    TMP DP  RH WIND       PRES   REMARKS
KAILUA KONA    SUNNY     83  66  56 SW9       29.98F
HILO           PTSUNNY   80  68  66 NE14      30.05F
HONOKAA*       NOT AVBL
KAWAIHAE MWT*    N/A     86 N/A N/A W7          N/A
KAWAIHAE*        N/A     82 N/A N/A W14         N/A
SOUTH POINT*     N/A     75 N/A N/A NE20G28     N/A
UPOLU AIRPORT*   N/A    N/A N/A N/A NE20G26     N/A
KAMUELA*       PTCLDY    73  63  68 NE24      30.11F
HAKALAU*         N/A     62  50  64 E8G14       N/A
KALOKO-HONOKO*   N/A     84  68  58 SW8       29.97F
PALI 2*          N/A     75  55  50 NE20G31     N/A
KEALAKOMO*       N/A     82  64  54 E20G29      N/A
KAUPULEHU*       N/A     82  55  39 NW12G18     N/A
KAPAPALA*        N/A     76  65  67 E12G26      N/A
LOWER KAHUKU*  NOT AVBL
PUHE CS*       NOT AVBL
PUHO CS*         N/A     83  65  53 W5G10       N/A
PTA KEAMUKU*     N/A     72  57  60 NE22G32     N/A
WAIKOLOA*        N/A     82  61  47 NE21G31     N/A
$$

HIZ027>028-240100-
BIG ISLAND OF HAWAII INTERIOR AND SUMMMITS-

CITY           SKY/WX    TMP DP  RH WIND       PRES   REMARKS
BRADSHAW FIELD SUNNY     69  47  45 S9G16     30.32F
MK VISITOR CEN NOT AVBL
MAUNA KEA*       N/A     45   0  15 E16         N/A
MAUNA LOA*       N/A    N/A N/A N/A MISG        N/A
MAUNA LOA 1*   NOT AVBL
PTA KIPUKA*      N/A     70  54  56 NW8G20      N/A
PTA RANGE 17*    N/A     46  34  61 W10G18      N/A
PTA WEST*        N/A     75  61  60 NW12G26     N/A
NENE CABIN*    NOT AVBL
AHUMOA*          N/A     64  56  75 N12G17      N/A
PTA PORTABLE*  NOT AVBL
PUU MALI*      NOT AVBL
$$

HIC003-240100-
NORTHWEST ISLANDS-

CITY           SKY/WX    TMP DP  RH WIND       PRES   REMARKS
MIDWAY ISLAND    N/A     79  70  73 SE14      30.19F
MIDWAY NOS*    NOT AVBL
FRENCH FRIGATE NOT AVBL
$$

PHZ110>124-180-240100-
BUOY REPORTS

STATION/POSITION TIME  TEMP    WIND        PRES    WAVE   SWELL
                       AIR SEA DIR/SP/G            HT/PER HT/DIR
                 (UTC) (F)     (DEG/KT/KT) (MB)    (FT/S) (FT/D)
BUOY 51001       NOT AVBL
BUOY 51101       0000   73 73   60/ 16/ 19 1021.0F   9/16   7/350
BUOY 51100       2300           70/ 16       N/A
BUOY 51003       0000   77 78   60/ 14/ 17 1016.8F   8/ 9   7
BUOY 51004       0000   78 79   70/ 17/ 23 1012.5F   9/ 9   7
BARBERS PT BUOY  NOT AVBL
WAIMEA BAY BUOY  0000      76                N/A     6/17   3/310
KAILUA BAY BUOY  0000      75                N/A     8/ 9   2/ 90
LANAI BUOY       0000      77                N/A     3/15   2/210
BARBERS PT 2     0000      76                N/A     5/17   3/310
PAUWELA MAUI     NOT AVBL
HILO             0000      78                N/A     7/ 9   2/110
KANEOHE BAY BUOY 0000      75                N/A     7/ 8   2/ 40
HANALEI KAUAI    0000      76                N/A     8/15   5/310
KAHULUI HARBOR   0000   76 77   40/ 18/ 24 1016.9F
HONOLULU HARBOR  0000   80     110/  8/ 14 1017.0F
KILO NALU        NOT AVBL
HILO HARBOR      0000   82 77   50/ 13/ 17 1016.9F
MOKUOLOE         0000   78 76   60/ 16/ 19 1018.2F
NAWILIWILI       0000      78                N/A
WHOTS BUOY       NOT AVBL
BUOY 51028       NOT AVBL
$$

......................KEY........................................
  SKY/WX - SKY CONDITIONS/PRESENT WEATHER
  TMP    - TEMPERATURE IN FAHRENHEIT
  DWPT   - DEWPOINT IN FAHRENHEIT
  RH     - RELATIVE HUMIDITY IN PERCENT
  WIND   - DIRECTION AND SPEED /MPH FOR ISLANDS...KTS FOR BUOYS/
  PRES   - MEAN SEA LEVEL PRESSURE IN INCHES OF HG
  VSB    - VISIBILITY IN MILES
  HX     - HEAT INDEX
  WCI    - WIND CHILL INDEX
  VRB    - VARIABLE WIND DIRECTION
  N/A    - NOT AVAILABLE



USA.gov is the U.S. government's official web portal to all federal, state and local government web resources and services.